FW0610 Weather Reports


Display with metric or nautical units.
time (UTC)temp
F
wind
direction
speed
MPH
gust
MPH
rain 1hr
in
rain 24hr
in
rain mn
in
humidity
%
barometer
mb
20260510193043 58 288 2.0 11.0 0.00 0.07 0.07 68 1010.7
20260510191543 56 0 1.0 10.0 0.00 0.07 0.07 76 1011.0
20260510190049 55 249 6.0 12.0 0.00 0.07 0.07 75 1010.9
20260510184536 55 266 3.0 10.0 0.00 0.07 0.07 76 1010.9
20260510183036 57 286 3.0 7.0 0.00 0.07 0.07 77 1010.7
20260510181546 56 289 5.0 10.0 0.00 0.07 0.07 80 1010.8
20260510180058 56 294 4.0 12.0 0.00 0.07 0.07 80 1010.8
20260510174537 56 191 1.0 7.0 0.02 0.07 0.07 84 1010.7
20260510173046 54 259 4.0 12.0 0.04 0.07 0.07 87 1010.8
20260510171549 54 258 1.0 10.0 0.04 0.07 0.07 86 1010.8
20260510170041 51 0 1.0 8.0 0.04 0.07 0.07 88 1010.7
20260510164551 53 272 2.0 8.0 0.02 0.05 0.05 88 1010.6
20260510163056 54 147 3.0 15.0 0.00 0.03 0.03 86 1010.3
20260510161539 54 146 4.0 13.0 0.01 0.03 0.03 87 1010.2
20260510160038 53 176 4.0 11.0 0.01 0.03 0.03 87 1010.3
20260510154543 54 96 7.0 11.0 0.01 0.03 0.03 87 1010.2
20260510153055 52 142 3.0 8.0 0.01 0.03 0.03 87 1010.3
20260510151538 53 145 2.0 5.0 0.00 0.02 0.02 86 1010.3
20260510150042 51 0 0.0 5.0 0.00 0.02 0.02 88 1010.2
20260510144543 51 150 2.0 7.0 0.00 0.02 0.02 86 1010.5
20260510143057 51 141 1.0 3.0 0.00 0.02 0.02 87 1010.4
20260510141543 51 83 0.0 2.0 0.00 0.02 0.02 88 1010.4
20260510140042 50 0 1.0 4.0 0.00 0.02 0.02 87 1010.3
20260510134541 50 168 3.0 7.0 0.00 0.02 0.02 87 1010.4
20260510133039 50 0 0.0 6.0 0.00 0.02 0.02 88 1010.1
20260510131539 49 0 3.0 7.0 0.00 0.02 0.02 88 1010.3
20260510130039 48 158 3.0 9.0 0.00 0.02 0.02 88 1010.6
20260510124549 48 135 4.0 8.0 0.00 0.02 0.02 88 1010.3
20260510123042 48 136 3.0 8.0 0.00 0.02 0.02 87 1010.1
20260510121539 48 130 2.0 11.0 0.00 0.02 0.02 85 1010.1
20260510120039 47 119 4.0 9.0 0.00 0.02 0.02 85 1010.2
20260510114544 47 153 3.0 11.0 0.00 0.02 0.02 84 1010.5
20260510113036 47 115 3.0 8.0 0.00 0.02 0.02 84 1009.8
20260510111536 46 194 0.0 7.0 0.00 0.02 0.02 84 1009.8
20260510110042 46 117 2.0 7.0 0.01 0.02 0.02 84 1009.4
20260510104545 46 51 0.0 6.0 0.01 0.02 0.02 84 1009.5
20260510103039 45 0 0.0 1.0 0.01 0.02 0.02 85 1009.5
20260510101541 45 0 0.0 0.0 0.01 0.02 0.02 85 1009.3
20260510100059 45 144 2.0 6.0 0.00 0.01 0.01 85 1008.9
20260510094552 45 130 3.0 7.0 0.01 0.01 0.01 86 1008.8
20260510093039 45 0 0.0 0.0 0.01 0.01 0.01 87 1009.0
20260510091539 45 0 0.0 1.0 0.01 0.01 0.01 88 1008.6
20260510090047 45 0 0.0 1.0 0.01 0.01 0.01 88 1009.0
20260510084554 45 0 0.0 2.0 0.00 0.00 0.00 88 1009.2
20260510083045 45 143 0.0 2.0 0.00 0.00 0.00 88 1009.2
20260510081551 45 141 0.0 4.0 0.00 0.00 0.00 88 1009.1
20260510080042 45 159 2.0 5.0 0.00 0.00 0.00 88 1009.0
20260510074540 45 0 0.0 4.0 0.00 0.00 0.00 88 1009.2
20260510073038 45 138 3.0 7.0 0.00 0.00 0.00 88 1009.3
20260510071543 45 123 1.0 5.0 0.00 0.00 0.00 88 1009.3
20260510070047 45 162 2.0 5.0 0.00 0.00 0.00 88 1009.4
20260510064543 45 128 0.0 5.0 0.00 0.00 0.00 88 1009.1
20260510063047 45 0 1.0 8.0 0.00 0.00 0.00 88 1009.3
20260510061539 45 207 1.0 7.0 0.00 0.00 0.00 88 1009.5
20260510060039 45 82 0.0 2.0 0.00 0.00 0.00 88 1009.2
20260510054537 45 182 0.0 8.0 0.00 0.00 0.00 88 1009.3
20260510053038 45 131 2.0 8.0 0.00 0.00 0.00 88 1009.5
20260510051546 45 0 3.0 10.0 0.00 0.00 0.00 88 1009.7
20260510050042 45 129 4.0 12.0 0.00 0.00 0.00 88 1009.6
20260510044540 45 138 5.0 13.0 0.00 0.00 0.00 88 1009.4
20260510043042 45 140 5.0 17.0 0.00 0.00 0.00 88 1009.3
20260510041537 45 109 4.0 11.0 0.00 0.00 0.00 88 1009.6
20260510040056 45 148 6.0 12.0 0.00 0.00 0.00 88 1009.8
20260510034543 45 84 3.0 12.0 0.00 0.00 0.00 87 1009.3
20260510033051 45 127 4.0 10.0 0.00 0.00 0.00 87 1009.5
20260510031539 45 138 6.0 10.0 0.00 0.00 0.00 87 1009.6
20260510030042 45 168 4.0 9.0 0.00 0.00 0.00 87 1009.7
20260510024540 45 121 2.0 8.0 0.00 0.00 0.00 86 1009.6
20260510023037 45 142 2.0 8.0 0.00 0.00 0.00 86 1009.8
20260510021543 45 157 2.0 7.0 0.00 0.00 0.00 86 1010.0
20260510020044 45 140 3.0 7.0 0.00 0.00 0.00 86 1009.9
20260510014545 45 140 3.0 9.0 0.00 0.00 0.00 85 1010.0
20260510013038 45 190 3.0 9.0 0.00 0.00 0.00 85 1010.3
20260510011542 46 126 4.0 8.0 0.00 0.00 0.00 85 1010.4
20260510010038 46 122 2.0 8.0 0.00 0.00 0.00 85 1010.4
20260510004538 46 56 4.0 10.0 0.00 0.00 0.00 84 1010.1
20260510003042 46 134 4.0 10.0 0.00 0.00 0.00 84 1010.0
20260510001542 46 124 4.0 11.0 0.00 0.00 0.00 84 1009.9
20260510000059 46 159 5.0 11.0 0.00 0.00 0.00 83 1009.7
20260509234550 46 142 6.0 12.0 0.00 0.00 0.00 83 1009.7
20260509233036 46 150 3.0 10.0 0.00 0.00 0.00 82 1009.7
20260509231545 46 135 5.0 12.0 0.00 0.00 0.00 80 1009.8
20260509230043 46 166 2.0 8.0 0.00 0.00 0.00 79 1009.8
20260509224541 46 123 5.0 10.0 0.00 0.00 0.00 78 1009.9
20260509223042 46 128 4.0 10.0 0.00 0.00 0.00 78 1009.9
20260509221543 47 158 5.0 12.0 0.00 0.00 0.00 77 1010.0
20260509220039 47 112 4.0 10.0 0.00 0.00 0.00 77 1010.1
20260509214537 47 119 5.0 14.0 0.00 0.00 0.00 78 1010.2
20260509213039 46 112 3.0 9.0 0.00 0.00 0.00 80 1010.4
20260509211540 46 169 5.0 9.0 0.00 0.00 0.00 81 1010.5
20260509210045 45 142 1.0 7.0 0.00 0.00 0.00 84 1010.5
20260509204546 45 153 2.0 8.0 0.00 0.00 0.00 84 1010.7
20260509203036 45 153 4.0 9.0 0.00 0.00 0.00 83 1010.8
20260509201546 45 123 2.0 10.0 0.00 0.00 0.00 83 1010.9
20260509200055 46 188 4.0 10.0 0.00 0.00 0.00 81 1010.9
20260509194540 46 141 2.0 7.0 0.00 0.00 0.00 78 1011.0